User: anonymous   Login
Location: Township of South Roscoe
(37.9570°N, 100.1180°W)
Time: 11:51:33
(UTC+00:00)
Language:

Cosmos 1346 Rocket - Orbit

View from above orbital plane
View from above orbital plane
View from above satellite
View from above satellite

Ground track
Ground track

The orbit data is extracted from the following two-line orbital elements,

1 13121U 82027B   22018.19070364  .00001743  00000-0  10750-3 0  9991
2 13121  81.1606 352.4652 0012843 287.7720  72.2103 15.09402332169718
Epoch (UTC): 18 January 2022 04:34:36
Eccentricity: 0.0012843
inclination: 81.1606°
perigee height: 529 km
apogee height: 547 km
right ascension of ascending node: 352.4652°
argument of perigee: 287.7720°
revolutions per day: 15.09402332
mean anomaly at epoch: 72.2103°
orbit number at epoch: 16971

The dashed part of the orbit path shows where the satellite is in the earth's shadow,  

DLR